QPF
0.16 0.14 0.11 0.08 0.07 0.06 0.05 0.05 0.06 0.05 0.05 0.04 0.04 0.03 0.03 0.03 0.03 0.03 0.04 0.05 0.04 0.04 0.04 0.04 0.03 0.04 0.05 0.05 0.05 0.05 0.04 0.04 0.04 0.03 0.04 0.05 0.05 0.04
0.18 0.17 0.13 0.10 0.07 0.06 0.06 0.05 0.06 0.06 0.04 0.03 0.02 0.03 0.03 0.03 0.02 0.03 0.03 0.05 0.06 0.05 0.04 0.04 0.05 0.04 0.04 0.03 0.04 0.04 0.04 0.03 0.04 0.04 0.04 0.04 0.04 0.04
0.10 0.10 0.09 0.09 0.07 0.06 0.06 0.06 0.06 0.05 0.04 0.04 0.04 0.03 0.03 0.02 0.02 0.02 0.02 0.02 0.03 0.03 0.03 0.04 0.04 0.05 0.05 0.05 0.04 0.05 0.05 0.04 0.04 0.04 0.04 0.04 0.05 0.05
0.05 0.06 0.07 0.08 0.07 0.07 0.07 0.06 0.04 0.04 0.04 0.04 0.04 0.03 0.02 0.02 0.01 0.01 0.01 0.01 0.01 0.01 0.02 0.03 0.03 0.04 0.04 0.05 0.06 0.07 0.05 0.06 0.05 0.05 0.04 0.05 0.05 0.06
0.04 0.04 0.05 0.07 0.07 0.08 0.07 0.06 0.05 0.05 0.04 0.04 0.03 0.02 0.02 0.01 0.01 0.01 0.01 0.01 0.00 0.01 0.02 0.02 0.02 0.02 0.02 0.03 0.05 0.07 0.06 0.05 0.04 0.05 0.05 0.04 0.04 0.05
0.03 0.03 0.03 0.05 0.05 0.06 0.05 0.05 0.04 0.04 0.04 0.03 0.03 0.02 0.02 0.01 0.01 0.01 0.01 0.00 0.01 0.00 0.01 0.01 0.02 0.02 0.02 0.02 0.03 0.04 0.04 0.03 0.02 0.02 0.03 0.03 0.03 0.04
0.03 0.03 0.03 0.04 0.05 0.04 0.03 0.03 0.03 0.03 0.02 0.02 0.02 0.02 0.01 0.01 0.01 0.01 0.01 0.01 0.00 0.00 0.00 0.01 0.02 0.02 0.03 0.02 0.02 0.02 0.02 0.02 0.02 0.01 0.02 0.02 0.02 0.03
0.02 0.02 0.03 0.04 0.04 0.04 0.03 0.03 0.03 0.03 0.03 0.02 0.02 0.02 0.01 0.01 0.01 0.01 0.00 0.00 0.00 0.00 0.00 0.00 0.01 0.02 0.03 0.03 0.03 0.03 0.02 0.01 0.01 0.01 0.01 0.01 0.01 0.02
0.02 0.02 0.03 0.03 0.03 0.03 0.03 0.02 0.02 0.02 0.03 0.03 0.02 0.02 0.03 0.03 0.02 0.01 0.01 0.01 0.00 0.00 0.00 0.00 0.00 0.00 0.01 0.03 0.03 0.03 0.03 0.02 0.01 0.01 0.01 0.01 0.01 0.01
0.02 0.03 0.04 0.03 0.03 0.04 0.03 0.02 0.01 0.02 0.03 0.03 0.02 0.03 0.04 0.04 0.03 0.03 0.03 0.02 0.01 0.01 0.00 0.00 0.00 0.00 0.00 0.01 0.01 0.02 0.02 0.02 0.01 0.01 0.01 0.01 0.01 0.02
0.03 0.03 0.03 0.03 0.04 0.04 0.03 0.02 0.02 0.02 0.03 0.02 0.02 0.03 0.05 0.05 0.05 0.04 0.04 0.03 0.02 0.02 0.01 0.01 0.01 0.01 0.00 0.01 0.01 0.02 0.02 0.02 0.01 0.02 0.01 0.02 0.02 0.03
0.05 0.03 0.03 0.03 0.03 0.04 0.03 0.03 0.02 0.02 0.02 0.02 0.01 0.02 0.03 0.03 0.04 0.03 0.03 0.03 0.03 0.03 0.03 0.03 0.02 0.02 0.02 0.01 0.01 0.02 0.02 0.02 0.02 0.02 0.02 0.02 0.03 0.03
0.03 0.02 0.02 0.03 0.04 0.03 0.03 0.02 0.02 0.03 0.03 0.03 0.02 0.02 0.02 0.02 0.02 0.02 0.02 0.02 0.03 0.02 0.03 0.03 0.04 0.04 0.03 0.02 0.01 0.01 0.01 0.02 0.03 0.03 0.03 0.03 0.03 0.03
0.02 0.01 0.01 0.02 0.03 0.03 0.02 0.02 0.03 0.02 0.02 0.02 0.02 0.02 0.02 0.02 0.01 0.01 0.01 0.02 0.02 0.02 0.02 0.02 0.03 0.03 0.03 0.03 0.02 0.02 0.02 0.02 0.02 0.04 0.05 0.04 0.03 0.03
0.01 0.02 0.02 0.03 0.04 0.04 0.03 0.03 0.03 0.02 0.01 0.02 0.02 0.03 0.03 0.03 0.02 0.02 0.01 0.02 0.02 0.02 0.02 0.02 0.02 0.02 0.02 0.02 0.02 0.01 0.02 0.02 0.02 0.03 0.02 0.02 0.03 0.04
0.02 0.02 0.02 0.03 0.03 0.02 0.02 0.03 0.03 0.03 0.03 0.04 0.04 0.04 0.04 0.03 0.02 0.02 0.01 0.02 0.02 0.02 0.02 0.02 0.02 0.03 0.03 0.03 0.03 0.02 0.01 0.02 0.02 0.02 0.03 0.02 0.02 0.02
0.02 0.02 0.02 0.02 0.01 0.01 0.02 0.03 0.04 0.04 0.04 0.03 0.03 0.02 0.01 0.01 0.01 0.01 0.01 0.01 0.01 0.02 0.02 0.03 0.03 0.02 0.02 0.02 0.03 0.03 0.02 0.02 0.01 0.02 0.03 0.03 0.02 0.02
0.03 0.03 0.03 0.03 0.02 0.03 0.04 0.04 0.04 0.03 0.03 0.02 0.01 0.01 0.01 0.01 0.01 0.01 0.01 0.01 0.01 0.03 0.03 0.03 0.04 0.03 0.02 0.02 0.03 0.03 0.02 0.01 0.01 0.02 0.02 0.01 0.02 0.02
0.06 0.06 0.05 0.05 0.05 0.04 0.04 0.03 0.04 0.03 0.02 0.02 0.02 0.02 0.02 0.01 0.01 0.01 0.01 0.01 0.01 0.02 0.03 0.04 0.04 0.03 0.03 0.02 0.03 0.03 0.03 0.02 0.02 0.02 0.02 0.01 0.02 0.02
0.03 0.03 0.03 0.04 0.04 0.04 0.05 0.05 0.06 0.06 0.05 0.03 0.02 0.02 0.02 0.02 0.02 0.02 0.02 0.02 0.02 0.03 0.03 0.03 0.03 0.03 0.03 0.03 0.03 0.03 0.04 0.04 0.03 0.03 0.03 0.03 0.02 0.02
0.04 0.03 0.03 0.02 0.02 0.02 0.02 0.04 0.04 0.04 0.04 0.04 0.03 0.03 0.02 0.02 0.02 0.03 0.03 0.04 0.04 0.04 0.04 0.04 0.04 0.04 0.04 0.04 0.04 0.04 0.04 0.05 0.05 0.04 0.03 0.04 0.03 0.03
0.05 0.05 0.04 0.04 0.03 0.02 0.02 0.02 0.03 0.03 0.03 0.03 0.02 0.02 0.02 0.02 0.02 0.03 0.04 0.04 0.04 0.04 0.03 0.03 0.03 0.03 0.03 0.04 0.04 0.04 0.04 0.05 0.05 0.04 0.04 0.04 0.04 0.04
0.05 0.05 0.05 0.06 0.05 0.05 0.06 0.06 0.05 0.05 0.05 0.04 0.03 0.03 0.02 0.02 0.02 0.02 0.02 0.03 0.02 0.03 0.03 0.03 0.02 0.02 0.03 0.03 0.03 0.03 0.04 0.04 0.05 0.05 0.04 0.04 0.03 0.03
MSLP
1013.88 1014.28 1014.66 1014.98 1015.25 1015.44 1015.59 1015.70 1015.80 1015.92 1016.06 1016.23 1016.43 1016.65 1016.86 1017.05 1017.23 1017.37 1017.50 1017.62 1017.74 1017.86 1017.97 1018.05 1018.08 1018.03 1017.87 1017.59 1017.19 1016.70 1016.15 1015.61 1015.10 1014.71 1014.45 1014.36 1014.44 1014.69
1013.46 1013.84 1014.18 1014.48 1014.72 1014.91 1015.07 1015.21 1015.36 1015.53 1015.73 1015.96 1016.20 1016.45 1016.67 1016.87 1017.02 1017.14 1017.24 1017.33 1017.43 1017.54 1017.66 1017.76 1017.83 1017.83 1017.73 1017.52 1017.19 1016.77 1016.27 1015.75 1015.26 1014.85 1014.57 1014.44 1014.47 1014.66
1013.03 1013.39 1013.71 1013.98 1014.21 1014.40 1014.58 1014.76 1014.95 1015.18 1015.44 1015.73 1016.01 1016.29 1016.52 1016.71 1016.84 1016.93 1017.00 1017.05 1017.12 1017.22 1017.34 1017.46 1017.57 1017.63 1017.61 1017.48 1017.25 1016.91 1016.50 1016.05 1015.62 1015.24 1014.97 1014.82 1014.82 1014.96
1012.60 1012.94 1013.24 1013.50 1013.73 1013.93 1014.13 1014.34 1014.58 1014.86 1015.17 1015.49 1015.82 1016.11 1016.35 1016.53 1016.65 1016.71 1016.75 1016.78 1016.83 1016.91 1017.03 1017.16 1017.30 1017.41 1017.46 1017.42 1017.29 1017.06 1016.75 1016.41 1016.06 1015.75 1015.52 1015.39 1015.38 1015.49
1012.18 1012.51 1012.80 1013.06 1013.28 1013.49 1013.71 1013.95 1014.21 1014.52 1014.85 1015.20 1015.54 1015.84 1016.08 1016.26 1016.37 1016.43 1016.45 1016.47 1016.50 1016.58 1016.69 1016.84 1017.00 1017.15 1017.25 1017.28 1017.24 1017.12 1016.93 1016.70 1016.46 1016.25 1016.09 1016.02 1016.03 1016.13
1011.80 1012.12 1012.40 1012.65 1012.87 1013.09 1013.30 1013.54 1013.81 1014.12 1014.45 1014.80 1015.13 1015.43 1015.67 1015.85 1015.96 1016.03 1016.06 1016.08 1016.12 1016.20 1016.32 1016.47 1016.63 1016.80 1016.93 1017.02 1017.05 1017.02 1016.94 1016.83 1016.71 1016.61 1016.55 1016.55 1016.61 1016.74
1011.47 1011.78 1012.05 1012.29 1012.50 1012.69 1012.90 1013.12 1013.36 1013.64 1013.94 1014.26 1014.57 1014.85 1015.08 1015.27 1015.39 1015.48 1015.54 1015.59 1015.66 1015.75 1015.87 1016.02 1016.18 1016.35 1016.50 1016.61 1016.69 1016.73 1016.74 1016.73 1016.73 1016.75 1016.80 1016.89 1017.03 1017.20
1011.20 1011.49 1011.75 1011.96 1012.15 1012.32 1012.48 1012.66 1012.86 1013.08 1013.33 1013.59 1013.85 1014.10 1014.33 1014.52 1014.67 1014.79 1014.90 1014.99 1015.09 1015.21 1015.34 1015.49 1015.64 1015.80 1015.94 1016.06 1016.16 1016.24 1016.32 1016.41 1016.51 1016.64 1016.80 1016.99 1017.21 1017.45
1011.01 1011.27 1011.50 1011.69 1011.84 1011.96 1012.08 1012.20 1012.33 1012.48 1012.65 1012.85 1013.06 1013.27 1013.47 1013.66 1013.84 1014.00 1014.15 1014.29 1014.43 1014.58 1014.72 1014.87 1015.02 1015.15 1015.27 1015.39 1015.50 1015.61 1015.74 1015.90 1016.09 1016.32 1016.58 1016.87 1017.16 1017.47
1010.90 1011.13 1011.31 1011.46 1011.57 1011.65 1011.71 1011.76 1011.83 1011.90 1012.00 1012.12 1012.27 1012.43 1012.61 1012.79 1012.97 1013.16 1013.34 1013.52 1013.70 1013.87 1014.03 1014.18 1014.31 1014.43 1014.54 1014.64 1014.76 1014.89 1015.06 1015.28 1015.54 1015.85 1016.19 1016.56 1016.93 1017.29
1010.87 1011.05 1011.19 1011.29 1011.36 1011.40 1011.41 1011.41 1011.42 1011.43 1011.45 1011.51 1011.59 1011.69 1011.83 1011.98 1012.16 1012.34 1012.54 1012.74 1012.93 1013.11 1013.27 1013.42 1013.54 1013.65 1013.75 1013.85 1013.97 1014.13 1014.34 1014.61 1014.93 1015.30 1015.72 1016.14 1016.57 1016.97
1010.92 1011.04 1011.14 1011.20 1011.23 1011.24 1011.22 1011.19 1011.15 1011.11 1011.08 1011.07 1011.08 1011.13 1011.20 1011.31 1011.44 1011.60 1011.77 1011.95 1012.13 1012.30 1012.45 1012.58 1012.70 1012.80 1012.90 1013.02 1013.16 1013.35 1013.60 1013.91 1014.29 1014.71 1015.17 1015.65 1016.11 1016.54
1011.04 1011.10 1011.15 1011.18 1011.19 1011.18 1011.15 1011.10 1011.04 1010.97 1010.90 1010.83 1010.79 1010.76 1010.76 1010.80 1010.86 1010.94 1011.05 1011.18 1011.31 1011.44 1011.56 1011.67 1011.77 1011.87 1011.98 1012.12 1012.29 1012.52 1012.82 1013.18 1013.59 1014.06 1014.56 1015.05 1015.53 1015.98
1011.20 1011.22 1011.23 1011.24 1011.24 1011.22 1011.20 1011.15 1011.08 1010.99 1010.89 1010.78 1010.68 1010.58 1010.49 1010.43 1010.39 1010.37 1010.39 1010.42 1010.47 1010.53 1010.60 1010.67 1010.75 1010.85 1010.97 1011.13 1011.33 1011.60 1011.94 1012.33 1012.79 1013.28 1013.80 1014.31 1014.80 1015.24
1011.42 1011.40 1011.38 1011.38 1011.37 1011.36 1011.34 1011.30 1011.23 1011.14 1011.01 1010.86 1010.69 1010.51 1010.33 1010.16 1010.00 1009.86 1009.75 1009.67 1009.61 1009.58 1009.57 1009.59 1009.64 1009.72 1009.84 1010.02 1010.25 1010.54 1010.91 1011.33 1011.80 1012.31 1012.83 1013.35 1013.83 1014.28
1011.69 1011.64 1011.60 1011.59 1011.58 1011.57 1011.55 1011.52 1011.45 1011.34 1011.19 1010.99 1010.76 1010.50 1010.22 1009.93 1009.65 1009.38 1009.14 1008.93 1008.75 1008.62 1008.53 1008.48 1008.48 1008.53 1008.63 1008.80 1009.03 1009.33 1009.70 1010.12 1010.59 1011.09 1011.60 1012.11 1012.59 1013.04
1011.99 1011.93 1011.89 1011.86 1011.85 1011.83 1011.80 1011.75 1011.67 1011.53 1011.34 1011.10 1010.81 1010.47 1010.10 1009.71 1009.32 1008.93 1008.57 1008.24 1007.96 1007.72 1007.54 1007.41 1007.34 1007.34 1007.40 1007.53 1007.73 1008.00 1008.33 1008.72 1009.15 1009.61 1010.10 1010.58 1011.06 1011.51
1012.36 1012.29 1012.24 1012.20 1012.16 1012.12 1012.07 1011.98 1011.86 1011.68 1011.45 1011.16 1010.81 1010.41 1009.96 1009.49 1009.01 1008.54 1008.09 1007.66 1007.29 1006.96 1006.70 1006.49 1006.35 1006.28 1006.27 1006.33 1006.46 1006.65 1006.90 1007.21 1007.57 1007.97 1008.39 1008.84 1009.29 1009.75
1012.78 1012.72 1012.66 1012.59 1012.52 1012.44 1012.33 1012.20 1012.02 1011.79 1011.50 1011.16 1010.76 1010.31 1009.82 1009.30 1008.77 1008.25 1007.74 1007.27 1006.83 1006.44 1006.11 1005.83 1005.61 1005.45 1005.35 1005.31 1005.33 1005.41 1005.55 1005.74 1005.99 1006.28 1006.62 1007.00 1007.42 1007.87
1013.27 1013.21 1013.13 1013.03 1012.92 1012.78 1012.61 1012.40 1012.16 1011.86 1011.52 1011.13 1010.70 1010.22 1009.71 1009.18 1008.64 1008.11 1007.59 1007.09 1006.63 1006.21 1005.83 1005.49 1005.19 1004.94 1004.73 1004.57 1004.46 1004.39 1004.38 1004.43 1004.54 1004.70 1004.93 1005.23 1005.58 1006.00
1013.82 1013.74 1013.64 1013.50 1013.33 1013.13 1012.89 1012.61 1012.29 1011.94 1011.55 1011.12 1010.67 1010.18 1009.68 1009.17 1008.65 1008.14 1007.64 1007.16 1006.70 1006.27 1005.86 1005.47 1005.11 1004.77 1004.45 1004.16 1003.90 1003.68 1003.51 1003.40 1003.35 1003.37 1003.47 1003.65 1003.92 1004.29
1014.38 1014.29 1014.16 1013.98 1013.75 1013.47 1013.16 1012.82 1012.44 1012.03 1011.60 1011.15 1010.69 1010.22 1009.74 1009.26 1008.79 1008.33 1007.87 1007.42 1006.99 1006.56 1006.14 1005.72 1005.30 1004.88 1004.46 1004.05 1003.66 1003.29 1002.97 1002.69 1002.48 1002.34 1002.30 1002.36 1002.53 1002.81
1014.93 1014.81 1014.63 1014.40 1014.12 1013.79 1013.42 1013.01 1012.59 1012.14 1011.69 1011.23 1010.77 1010.32 1009.88 1009.44 1009.02 1008.60 1008.19 1007.79 1007.38 1006.97 1006.54 1006.09 1005.63 1005.15 1004.66 1004.15 1003.65 1003.16 1002.69 1002.28 1001.92 1001.65 1001.46 1001.39 1001.44 1001.62
Thickness
5731 5730 5728 5727 5725 5723 5720 5717 5712 5707 5707 5709 5710 5711 5709 5707 5706 5704 5702 5699 5697 5695 5693 5692 5690 5689 5687 5685 5684 5683 5682 5681 5681 5680 5680 5679 5677 5677
5731 5728 5727 5726 5724 5722 5720 5717 5714 5710 5706 5708 5707 5707 5706 5704 5702 5700 5698 5696 5693 5691 5689 5688 5686 5684 5683 5682 5680 5678 5677 5677 5676 5676 5675 5674 5672 5672
5729 5727 5725 5724 5721 5720 5717 5715 5712 5709 5705 5705 5704 5703 5701 5699 5697 5695 5693 5691 5689 5687 5685 5683 5682 5680 5679 5678 5676 5674 5673 5673 5672 5671 5669 5668 5667 5666
5725 5724 5722 5721 5719 5717 5715 5712 5710 5707 5704 5701 5699 5697 5696 5694 5692 5690 5688 5687 5685 5683 5682 5680 5678 5677 5675 5674 5672 5670 5669 5668 5667 5666 5665 5663 5662 5661
5723 5721 5719 5718 5716 5714 5712 5710 5707 5705 5701 5698 5695 5692 5690 5688 5685 5683 5682 5681 5680 5679 5677 5676 5674 5673 5671 5670 5668 5666 5665 5664 5663 5662 5660 5659 5657 5656
5721 5719 5717 5715 5713 5711 5709 5706 5704 5700 5697 5693 5690 5687 5684 5682 5679 5677 5676 5675 5674 5674 5673 5672 5670 5669 5667 5666 5664 5663 5661 5660 5659 5657 5655 5654 5653 5651
5717 5715 5714 5712 5710 5708 5706 5702 5700 5696 5692 5689 5685 5682 5679 5676 5675 5673 5671 5670 5669 5668 5667 5667 5666 5664 5663 5661 5660 5658 5657 5655 5654 5652 5650 5649 5648 5646
5711 5710 5709 5707 5705 5703 5701 5699 5696 5692 5688 5685 5682 5678 5676 5674 5672 5669 5666 5664 5663 5664 5661 5662 5661 5660 5659 5658 5656 5654 5652 5651 5649 5647 5646 5645 5643 5641
5706 5704 5704 5703 5700 5698 5696 5693 5690 5688 5686 5683 5679 5677 5674 5672 5669 5666 5663 5661 5660 5660 5656 5656 5656 5655 5656 5654 5653 5651 5649 5647 5645 5643 5642 5640 5638 5636
5701 5699 5697 5695 5694 5691 5688 5686 5685 5683 5681 5679 5676 5674 5672 5670 5666 5663 5660 5657 5655 5653 5652 5651 5651 5651 5651 5650 5649 5647 5645 5643 5641 5638 5636 5634 5633 5631
5695 5693 5691 5689 5687 5684 5681 5679 5678 5677 5676 5674 5672 5669 5667 5664 5661 5657 5653 5651 5650 5649 5647 5646 5647 5646 5645 5645 5644 5642 5640 5638 5636 5634 5631 5629 5627 5625
5689 5687 5685 5683 5680 5677 5675 5673 5670 5670 5668 5667 5665 5663 5660 5658 5655 5652 5650 5646 5645 5644 5643 5641 5641 5639 5639 5640 5638 5636 5634 5633 5631 5629 5626 5624 5621 5619
5683 5681 5679 5676 5673 5670 5668 5667 5665 5663 5661 5659 5657 5656 5653 5651 5649 5647 5645 5642 5639 5638 5637 5634 5635 5633 5632 5632 5631 5630 5628 5627 5625 5623 5620 5618 5615 5613
5677 5675 5673 5670 5667 5664 5661 5660 5658 5655 5653 5651 5650 5648 5646 5645 5643 5641 5639 5636 5634 5632 5630 5627 5627 5626 5625 5624 5624 5623 5621 5620 5618 5617 5615 5612 5609 5607
5671 5669 5666 5663 5660 5657 5655 5652 5650 5648 5645 5643 5642 5641 5639 5637 5635 5633 5631 5629 5627 5625 5623 5620 5619 5618 5617 5617 5617 5615 5614 5612 5610 5610 5608 5606 5604 5601
5664 5662 5659 5656 5652 5650 5648 5645 5643 5641 5638 5636 5634 5633 5631 5629 5627 5625 5623 5621 5619 5618 5616 5613 5612 5610 5610 5609 5609 5608 5606 5605 5604 5601 5600 5599 5597 5596
5657 5654 5650 5647 5645 5643 5641 5638 5636 5633 5630 5628 5626 5625 5623 5622 5619 5617 5614 5612 5611 5611 5609 5607 5604 5603 5603 5602 5600 5600 5599 5597 5596 5594 5592 5592 5591 5590
5648 5645 5643 5640 5638 5636 5634 5632 5629 5627 5624 5622 5619 5617 5616 5614 5612 5609 5607 5605 5604 5604 5602 5599 5596 5595 5594 5594 5593 5593 5592 5591 5589 5587 5585 5585 5586 5585
5640 5638 5635 5633 5631 5629 5627 5625 5623 5620 5617 5614 5612 5610 5608 5606 5604 5602 5601 5599 5598 5597 5595 5592 5589 5588 5587 5589 5589 5585 5584 5584 5582 5580 5579 5579 5580 5580
5632 5630 5628 5626 5624 5622 5620 5617 5615 5613 5610 5607 5605 5603 5601 5599 5597 5595 5594 5592 5591 5589 5588 5585 5583 5582 5581 5581 5581 5579 5577 5576 5575 5574 5573 5571 5571 5571
5623 5621 5620 5618 5617 5615 5612 5610 5607 5605 5603 5600 5598 5596 5594 5592 5590 5588 5587 5584 5582 5582 5581 5580 5578 5575 5573 5572 5572 5573 5571 5569 5568 5567 5566 5564 5564 5564
5615 5613 5612 5610 5608 5606 5604 5602 5600 5598 5595 5592 5591 5589 5586 5585 5583 5581 5579 5577 5576 5575 5574 5573 5570 5567 5566 5565 5565 5565 5564 5562 5560 5559 5558 5558 5558 5559
5607 5605 5603 5602 5600 5598 5595 5593 5591 5589 5587 5584 5582 5580 5579 5577 5576 5574 5572 5570 5569 5567 5566 5564 5562 5560 5559 5558 5557 5556 5555 5554 5554 5553 5552 5551 5551 5551